[Date Prev][Date Next][Thread Prev][Thread Next] - [Date Index][Thread Index][Author Index]
2 Line ISS Keps 3-26
- Subject: [sarex] 2 Line ISS Keps 3-26
- From: "Dave Larsen PhD" <doc@xxxxxxxxxxx>
- Date: Sat, 25 Mar 2006 20:16:31 -0800
ISS
1 25544U 98067A 06085.02221300 .00011951 00000-0 83970-4 0 6039
2 25544 051.6426 255.4500 0008919 045.5307 050.4594 15.74622218420054
----
Via the sarex mailing list at AMSAT.ORG courtesy of AMSAT-NA.
To unsubscribe, send "unsubscribe sarex" to Majordomo@amsat.org
AMSAT Home